Simultaneous Nadir Overpasses (SNOs) Predictions

Prediction of SNOs between GOES-16 and NOAA-19 Satellite Orbit:

Table of predicted SNOs for the next 14.0 days since TLE Epoch: 9/26/2020
Index Date Time (GOES-16) GOES-16 Lat,Lon NOAA-19 Lat,Lon Distance(km) Time Diff (sec)
1 09/26/2020 23:08:01 0.03, -75.18 0.30, -73.97 138.02 80
2 09/27/2020 22:56:19 0.03, -75.19 0.99, -71.12 464.45 80
3 09/29/2020 11:28:52 -0.04, -75.21 0.80, -78.91 421.89 80
4 09/30/2020 11:17:09 -0.04, -75.21 0.16, -76.04 94.81 80
5 10/01/2020 11:02:47 -0.04, -75.22 -0.48, -73.18 232.48 80
6 10/03/2020 23:23:52 0.04, -75.23 -0.64, -78.17 335.16 80
7 10/04/2020 23:12:10 0.03, -75.25 -0.01, -75.31 8.16 80
8 10/05/2020 23:03:09 0.03, -75.26 0.68, -72.45 320.26 80
9 10/08/2020 11:23:57 -0.03, -75.31 0.43, -77.38 235.73 80
10 10/09/2020 11:09:35 -0.03, -75.32 -0.21, -74.51 92.21 80
